Preview of NWS' New Version of Forecast
This preview is not operational and should not be used for support decisions.
Latest weather observations around

Little Rock, Adams Field (KLIT)

Using English Units (Switch to International System of Units)
Date/ Time (CDT) Wind (mph) Vis. (mi) Weather Sky Cond. Temp (°F) Rel. Humidity Wind Chill (°F) Heat Index (°F) Pressure Precip. (in)
Air Dwpt 6 hour Altimeter (inHg) Sea level (inHg) 1 hr 3 hr 6 hr
Max Min
Jun 18 06:53 Calm 10 Clear CLR 74 72     94%   75 30.09 30.09      
Jun 18 05:53 S 5 10 Mostly Clear FEW100 72 71     97%   73 30.07 30.07      
Jun 18 04:53 SSW 8 10 Clear CLR 74 71     91%   75 30.06 30.06      
Jun 18 03:53 SSW 9 10 Mostly Clear FEW250 75 71     88%   76 30.05 30.05      
Jun 18 02:53 S 7 10 Mostly Clear FEW250 76 71     85%   77 30.04 30.04      
Jun 18 01:53 S 8 10 Mostly Clear FEW250 77 71     82%   78 30.05 30.04      
Jun 18 00:53 S 6 10 Mostly Clear FEW250 77 71     82%   78 30.05 30.05      
Jun 17 23:53 S 8 10 Mostly Clear FEW250 79 70     74%   82 30.06 30.06      
Jun 17 22:53 S 8 10 Mostly Clear FEW250 80 72     76%   84 30.06 30.06      
Jun 17 21:53 SSE 7 10 Partly Cloudy SCT250 81 73     77%   86 30.04 30.03      
Jun 17 20:53 SSE 5 10 Mostly Cloudy BKN250 83 72     70%   88 30.01 30.01      
Jun 17 19:53 SSE 7 10 Partly Cloudy SCT250 86 72     63%   92 30 30      
Jun 17 18:53 SSE 10 10 Partly Cloudy FEW055 SCT250 88 72     59%   95 29.99 29.99      
Jun 17 17:53 SSE 9 10 Mostly Cloudy FEW050 BKN250 90 71     54%   96 30 29.99      
Jun 17 16:53   10 Mostly Cloudy SCT050 BKN250 91 71     52%   98 30.01 30.01      
Jun 17 15:53 SE 10 10 Mostly Cloudy SCT050 BKN250 91 71     52%   98 30.02 30.01      
Jun 17 14:53 SE 11 10 Mostly Cloudy SCT045 BKN250 90 71     54%   96 30.03 30.03      
Jun 17 13:53 S 8 10 Mostly Cloudy SCT045 BKN250 89 71     55%   95 30.04 30.04      
Jun 17 12:53 3 10 Mostly Cloudy SCT040 BKN250 88 72     59%   95 30.06 30.05      
Jun 17 11:53 SSE 8 10 Mostly Cloudy SCT035 BKN250 88 73     61%   96 30.06 30.06      
Jun 17 10:53 5 10 Mostly Cloudy SCT030 BKN250 86 75     70%   95 30.07 30.07      
Jun 17 09:53 SSW 8 10 Partly Cloudy SCT025 SCT250 84 75     74%   92 30.07 30.07      
Jun 17 08:53 SSW 5 10 Mostly Clear FEW250 82 75     79%   89 30.07 30.06      
Jun 17 07:53 SSW 7 10 Mostly Clear FEW250 79 74     85%   83 30.05 30.05      
Jun 17 06:53 Calm 10 Mostly Clear FEW250 75 74     96%   77 30.04 30.03      
Jun 17 05:53 S 3 10 Mostly Clear FEW250 74 73     97%   76 30.02 30.02      
Jun 17 04:53 Calm 10 Mostly Clear FEW250 75 74     96%   77 30 30      
Jun 17 03:53 SSE 3 10 Mostly Clear FEW250 75 73     94%   77 29.98 29.98      
Jun 17 02:53 S 7 10 Mostly Clear FEW250 77 74     90%   79 29.98 29.98      
Jun 17 01:53 S 6 10 Mostly Clear FEW250 76 74     94%   78 29.99 29.98      
Jun 17 00:53 SE 3 10 Mostly Clear FEW250 77 74     90%   79 29.99 29.99      
Jun 16 23:53 SSE 3 10 Clear CLR 79 73     82%   82 29.99 29.98      
Jun 16 22:53 S 5 10 Clear CLR 79 74     85%   83 29.98 29.98      
Jun 16 21:53 S 5 10 Clear CLR 81 72     74%   85 29.97 29.97      
Jun 16 20:53 SSE 7 10 Mostly Clear FEW080 FEW250 83 71     67%   88 29.95 29.94      
Jun 16 19:53 SE 9 10 Mostly Clear FEW080 FEW250 87 72     61%   94 29.93 29.93      
Jun 16 18:53 SSE 8 10 Partly Cloudy FEW055 FEW080 SCT120 SCT250 88 73     61%   96 29.93 29.93      
Jun 16 17:53 SSE 13 10 Partly Cloudy SCT050 SCT250 90 71     54%   96 29.93 29.92      
Jun 16 16:53 5 10 Partly Cloudy SCT050 SCT250 92 72     52%   100 29.93 29.93      
Jun 16 15:53 6 10 Partly Cloudy SCT050 91 72     54%   99 29.94 29.93      
Jun 16 14:53 S 8 10 Partly Cloudy SCT050 89 72     57%   96 29.95 29.95      
Jun 16 13:53 SSW 9 10 Partly Cloudy SCT050 91 73     56%   100 29.96 29.96      
Jun 16 12:53 SSE 8 10 Partly Cloudy SCT042 89 73     59%   97 29.97 29.97      
Jun 16 11:53 SSW 10 10 Partly Cloudy SCT040 89 74     61%   98 29.99 29.98      
Jun 16 10:53 S 6 10 Partly Cloudy SCT035 88 75     66%   98 30 29.99      
Jun 16 09:53 WSW 8 10 Mostly Clear FEW250 85 74     70%   92 29.99 29.98      
Jun 16 08:53 SW 6 10 Mostly Clear FEW250 82 74     77%   88 29.99 29.99      
Jun 16 07:53 SSW 6 10 Mostly Clear FEW250 78 74     87%   80 30 29.99      
Jun 16 06:53 SE 3 9 Clear CLR 74 73     97%   76 29.99 29.99      
Jun 16 05:53 Calm 10 Mostly Clear FEW250 74 72     94%   75 29.99 29.98      
Jun 16 04:53 Calm 10 Clear CLR 74 73     97%   76 29.97 29.97      
Jun 16 03:53 Calm 10 Clear CLR 74 73     97%   76 29.95 29.95      
Jun 16 02:53 ESE 3 10 Clear CLR 74 73     97%   76 29.95 29.95      
Jun 16 01:53 S 7 10 Clear CLR 76 73     91%   77 29.95 29.95      
Jun 16 00:53 S 7 10 Mostly Clear FEW250 77 74     90%   79 29.95 29.94      
Jun 15 23:53 S 7 10 Mostly Clear FEW250 79 73     82%   82 29.95 29.94      
Jun 15 22:53 S 8 10 Mostly Clear FEW250 81 73     77%   86 29.94 29.94      
Jun 15 21:53 SSE 5 10 Mostly Clear FEW060 FEW250 81 74     79%   86 29.93 29.93      
Jun 15 20:53 S 6 10 Partly Cloudy FEW040 SCT120 SCT250 83 75     77%   90 29.92 29.92      
Jun 15 19:53 SSE 6 10 Partly Cloudy FEW040 SCT250 87 73     63%   95 29.91 29.9      
Jun 15 18:53 SSW 7 10 Partly Cloudy FEW042 SCT250 90 71     54%   96 29.89 29.89      
Jun 15 17:53 SSW 7 10 Partly Cloudy SCT045 91 72     54%   99 29.89 29.89      
Jun 15 16:53 S 6 10 Partly Cloudy SCT045 92 72     52%   100 29.91 29.9      
Jun 15 15:53 SSW 10 10 Partly Cloudy SCT048 92 71     51%   99 29.92 29.91      
Jun 15 14:53 SSE 8 10 Partly Cloudy SCT048 91 71     52%   98 29.94 29.93      
Jun 15 13:53 SW 8 10 Partly Cloudy SCT045 90 72     56%   97 29.96 29.95      
Jun 15 12:53 SSW 9 10 Partly Cloudy SCT045 90 72     56%   97 29.97 29.97      
Jun 15 11:53 S 5 10 Partly Cloudy SCT040 89 72     57%   96 29.99 29.98      
Jun 15 10:53 S 5 10 Mostly Clear FEW030 88 74     63%   97 29.99 29.99      
Jun 15 09:53 SSW 6 10 Clear CLR 86 74     67%   94 30 30      
Jun 15 08:53 Calm 10 Mostly Clear FEW150 82 75     79%   89 30.01 30.01      
Jun 15 07:53 SSW 5 7 Mostly Clear FEW150 78 75     90%   80 30 30      
Jun 15 06:53 S 3 9 Partly Cloudy SCT250 74 74     100%   76 29.99 29.99      
May 14 19:53 S 6 10 Clear   82 64     55%   84 29.88 29.88      
May 14 06:53 SE 3 10 Mostly Cloudy BKN250 69 69     100%     30.01 30.01      
May 13 23:53 SSW 7 10 Clear CLR 74 69     85%   75 30.01 30.01      
May 13 21:53 S 8 10 Clear CLR 75 69     82%   76 29.99 29.98      
May 13 08:53 WSW 7 10 Clear CLR 76 67     74%   77 30.09 30.09      
May 13 05:53 Calm 10 Clear CLR 66 63     90%     30.05 30.04      
May 13 01:53 S 7 10 Clear CLR 69 63     81%     30.01 30.01      
May 12 15:53 S 9 10 Clear   87 63     45%   88 30.01 30.01      
May 11 20:53 S 8 10 Mostly Clear FEW250 75 63     66%   75 29.93 29.93      
May 11 10:53 SW 11 10 Mostly Clear FEW050 80 62     54%   81 30.02 30.02      
Jun 12 06:38 SSE 5 1 Light Drizzle and Fog/Mist SKC OVC005 71 71     100%   73 30.04   0    
Jun 12 03:28 S 6 10 Mostly Cloudy BKN013 72 70     93%   73 30        
Jun 11 18:53 S 10 10 Mostly Clear FEW050 86 67     53%   89 29.96 29.95      
Jun 11 15:53 S 10 10 Partly Cloudy SCT050 87 66     50%   89 29.99 29.99      
Jun 11 13:53 S 11 10 Partly Cloudy SCT050 87 64     46%   88 30.03 30.02      
Jun 11 08:53 S 6 10 Partly Cloudy SCT065 76 69     79%   77 30.04 30.03      
Jun 09 18:53 S 6 10 Mostly Cloudy FEW030 BKN250 78 57     48%   78 29.91 29.91      
Jun 09 14:53   10 Mostly Cloudy FEW060 BKN250 82 53     37%   81 29.95 29.95      
Jun 09 04:53 WSW 3 10 Clear CLR 59 59     100%     29.93 29.93      
Jun 06 12:53 ENE 13 10 Partly Cloudy SCT030 86 69     57%   90 29.82 29.82      
Jun 06 11:53 NE 11 10 Partly Cloudy SCT026 85 72     65%   91 29.83 29.82      
Jun 06 09:53 NE 10 10 Partly Cloudy FEW015 SCT250 80 73     79%   84 29.84 29.84      
Jun 05 13:53 E 5 7 Mostly Cloudy FEW015 BKN025 BKN250 77 71     82%   78 29.77 29.76 0